Home   Weather   Medicine Hat   Past weeks

Flag for Canada Past Weather in Medicine Hat, Alberta, Canada — Yesterday and Last 2 Weeks

48 °F

Passing clouds.

Feels Like: 46 °F
Forecast: 30 / 56 °F
Wind: 6 mph from Northwest

Location: Medicine Hat

Current Time: Oct 22, 2016 at 7:30:58 PM

Latest Report: Oct 22, 2016 at 7:00 PM

Visibility: 30 mi

Pressure: 29.98 "Hg (27.67 "Hg at 661m altitude)

Humidity: 37%

Dew Point: 23 °F

Location of Medicine HatLocation

Past Weather in Medicine Hat — Graph


Medicine Hat Temperature Yesterday

Maximum temperature yesterday: 59 °F (at 4:00 PM)
Minimum temperature yesterday: 37 °F (at 10:00 PM)
Average temperature yesterday: 48 °F

High & Low Weather Summary for the Past Weeks

High63 °F (Oct 14, 3:00 PM)100% (Oct 10, 7:47 AM)30.42 "Hg (Oct 10, 7:47 AM)
Low21 °F (Oct 12, 2:00 AM)27% (Oct 22, 3:00 PM)29.25 "Hg (Oct 14, 12:00 PM)
Average40 °F75%29.89 "Hg
* Reported Oct 7 6:00 PM — Oct 22 6:00 PM, Medicine Hat, Weather by CustomWeather, © 2016

Note: Actual official high and low records may vary slightly from our data, if they occured in-between our weather recording intervals... More about our weather records


Medicine Hat Weather History for the Previous 24 Hours

Scroll right to see more
Time TempWeatherWind HumidityBarometerVisibility
6:00 PM
Sat, Oct 22
54 °FPassing clouds.7 mph30%29.94 "Hg30 mi
5:00 PM57 °FPassing clouds.12 mph29%29.92 "Hg30 mi
4:00 PM59 °FPassing clouds.16 mph27%29.89 "Hg30 mi
3:00 PM59 °FPassing clouds.16 mph27%29.88 "Hg30 mi
2:00 PM57 °FPassing clouds.15 mph29%29.88 "Hg30 mi
1:00 PM55 °FPassing clouds.16 mph36%29.87 "Hg30 mi
12:00 PM54 °FPassing clouds.14 mph44%29.86 "Hg30 mi
11:00 AM48 °FPassing clouds.8 mph62%29.86 "Hg30 mi
10:00 AM41 °FBroken clouds.9 mph81%29.85 "Hg30 mi
9:00 AM39 °FBroken clouds.8 mph81%29.83 "Hg30 mi
8:00 AM39 °FMore clouds than sun.8 mph81%29.82 "Hg30 mi
7:00 AM37 °FOvercast.5 mph87%29.79 "Hg15 mi
6:00 AM41 °FOvercast.6 mph81%29.79 "Hg9 mi
5:00 AM36 °FMostly cloudy.6 mph87%29.80 "Hg9 mi
4:00 AM34 °FPartly cloudy.6 mph87%29.81 "Hg9 mi
3:00 AM34 °FPassing clouds.2 mph87%29.83 "Hg9 mi
2:00 AM36 °FPassing clouds.No wind81%29.84 "Hg8 mi
1:00 AM36 °FPassing clouds.3 mph81%29.84 "Hg9 mi
12:00 AM37 °FPassing clouds.2 mph75%29.85 "Hg9 mi
11:00 PM
Fri, Oct 21
37 °FPassing clouds.7 mph75%29.88 "Hg9 mi
10:00 PM37 °FPassing clouds.3 mph75%29.88 "Hg9 mi
9:00 PM43 °FPassing clouds.2 mph61%29.90 "Hg30 mi
8:00 PM43 °FPassing clouds.6 mph61%29.91 "Hg30 mi
7:00 PM50 °FPassing clouds.5 mph47%29.90 "Hg30 mi
Weather by CustomWeather, © 2016

See weather overviewHow to use our weather pages